SCP
4 4 4 3 3 3 2 2 2 2 1 1 1 1 1 1 1 1 1 1 2 2 1 2 2 2 2 2 2 3 3 3 3 2 2 2 2 2 2 2 2 1 1
5 5 4 3 2 2 2 2 2 2 1 1 1 1 1 1 1 1 1 1 1 1 1 2 2 2 2 2 2 2 2 3 3 2 2 2 2 2 2 2 2 1 1
4 4 4 3 2 2 2 2 2 1 1 1 1 1 1 1 1 1 0 0 1 1 1 1 1 1 2 2 2 2 2 2 2 2 2 2 1 1 1 1 1 1 1
3 3 3 2 1 1 2 2 1 1 1 1 2 2 1 1 1 0 0 0 0 1 1 1 1 1 1 1 2 2 2 3 3 3 2 2 2 1 1 1 1 1 1
1 1 1 1 1 1 1 1 1 1 1 1 1 1 1 1 1 0 0 0 0 0 0 0 0 1 1 1 1 2 2 3 3 3 3 2 2 2 1 1 1 1 1
1 1 1 1 1 1 1 1 1 1 1 1 1 1 1 1 0 0 0 0 0 0 0 0 0 0 0 1 1 1 2 2 3 3 2 2 2 2 1 1 1 1 1
0 0 0 0 0 0 0 1 1 0 0 0 0 0 0 0 0 0 0 0 0 0 0 0 0 0 0 0 1 1 1 2 2 2 2 2 2 2 1 1 1 1 1
0 0 0 0 0 0 0 0 0 0 0 0 0 0 0 0 0 0 0 0 0 0 0 0 0 0 0 0 0 1 1 1 1 1 2 2 1 1 1 1 1 1 1
0 0 0 0 0 0 0 0 0 0 0 0 0 0 0 0 0 0 0 0 0 0 0 0 0 0 0 0 0 0 0 1 1 1 1 1 1 1 1 1 1 1 1
0 0 0 0 0 0 0 0 0 0 0 0 0 0 0 0 0 0 0 0 0 0 0 0 0 0 0 0 0 0 0 0 1 1 1 1 1 1 1 1 1 1 1
0 0 0 0 0 0 0 0 0 0 0 0 0 0 0 0 0 0 0 0 0 0 0 0 0 0 0 0 0 0 0 0 0 1 1 1 0 0 0 0 0 0 0
0 0 0 0 0 0 0 0 0 0 0 0 0 0 0 0 0 0 0 0 0 0 0 0 0 0 0 0 0 0 0 0 0 0 0 0 0 0 0 0 0 0 0
0 0 0 0 0 0 0 0 0 0 0 0 0 0 0 0 0 0 0 0 0 0 0 0 0 0 0 0 0 0 0 0 0 0 0 0 0 0 0 0 0 0 0
0 0 0 0 0 0 0 0 0 0 0 0 0 0 0 0 0 0 0 0 0 0 0 0 0 0 0 0 0 0 0 0 0 0 0 0 0 0 0 0 0 0 0
0 0 0 0 0 0 0 0 0 0 0 0 0 0 0 0 0 0 0 0 0 0 0 0 0 0 0 0 0 0 0 0 0 0 0 0 0 0 0 0 0 0 0
-0 0 0 0 0 0 0 0 0 0 0 0 0 0 0 0 0 0 0 0 0 0 0 0 0 0 0 0 0 0 0 0 0 0 0 0 0 0 0 0 0 0 0
0 0 0 0 0 0 0 0 0 0 0 0 0 0 0 0 0 0 0 0 0 0 0 0 0 0 0 0 0 0 0 0 0 0 0 0 0 0 0 0 0 0 0
0 0 0 0 0 0 0 0 0 0 0 0 0 0 0 0 0 0 0 0 0 0 0 0 0 0 0 0 0 0 0 0 0 0 0 0 0 0 0 0 0 0 0
0 0 0 0 0 0 0 0 0 0 0 0 0 0 0 0 0 0 0 0 0 0 0 0 0 0 0 0 0 0 0 0 0 0 0 0 0 0 0 0 0 0 0
0 0 0 0 0 0 0 0 0 0 0 0 0 0 0 0 0 0 0 0 0 0 0 0 0 0 0 0 0 0 0 0 0 0 0 0 0 0 0 0 0 0 0
0 0 0 0 0 0 0 0 0 0 0 0 0 0 0 0 0 0 0 0 0 0 0 0 0 0 0 0 0 0 0 0 0 0 0 0 0 0 0 0 0 0 0
0 0 0 0 0 0 0 0 0 0 0 0 0 0 0 0 0 0 0 0 0 0 0 0 0 0 0 0 0 0 0 0 0 0 0 0 0 0 0 0 0 0 0
0 0 0 0 0 0 0 0 0 0 0 0 0 0 0 0 0 0 0 0 0 0 0 0 0 0 0 0 0 0 0 0 0 0 0 0 0 0 0 0 0 0 0
0 0 0 0 0 0 0 0 0 0 0 0 0 0 0 0 0 0 0 0 0 0 0 0 0 0 0 0 0 0 0 0 0 0 0 0 0 0 0 0 0 0 0
0 0 0 0 0 0 0 0 0 0 0 0 0 0 0 0 0 0 0 0 0 0 0 0 0 0 0 0 0 0 0 0 0 0 0 0 0 0 0 0 0 0 0
0 0 0 0 0 0 0 0 0 0 0 0 0 0 0 0 0 0 0 0 0 0 0 0 0 0 0 0 0 0 0 0 0 0 0 0 0 0 0 0 0 0 0
Wind_Speed
3 3 4 6 6 5 5 6 6 5 3 2 1 1 2 2 2 3 4 4 5 5 5 5 5 5 5 7 7 7 8 8 5 5 6 6 8 10 9 9 9 11 12
3 3 4 4 6 6 6 6 5 4 3 2 2 1 1 2 2 3 4 5 5 6 5 5 5 5 5 7 7 7 6 5 5 5 4 4 4 7 9 8 9 11 9
7 7 6 6 6 6 7 5 5 4 3 2 1 1 1 2 2 3 3 4 6 7 6 6 6 6 6 6 7 7 9 7 6 7 6 5 6 3 3 6 7 7 6
6 7 7 7 8 7 4 3 4 3 3 3 2 2 1 2 3 3 4 6 6 6 7 7 7 7 6 7 8 8 8 9 7 6 8 7 5 4 3 3 4 6 6
8 9 9 8 7 4 3 3 4 3 3 3 4 3 3 3 3 3 5 5 5 6 6 7 7 7 7 8 9 9 9 8 8 7 6 8 7 8 6 5 3 3 4
7 8 7 5 5 2 3 4 5 4 4 4 4 4 4 3 3 4 4 4 4 5 6 7 7 8 7 9 9 9 10 9 10 8 7 6 5 6 7 8 5 4 3
5 6 7 6 6 4 4 5 6 5 4 4 4 4 4 3 4 4 4 5 5 5 7 7 8 8 8 9 9 9 10 10 10 10 8 7 7 5 5 6 5 4 2
6 7 7 6 6 6 5 6 6 6 5 5 5 4 4 3 3 4 4 5 5 6 8 8 9 10 10 10 9 8 9 8 9 9 8 6 6 6 5 5 5 4 3
9 9 9 8 7 6 5 4 5 5 5 5 5 5 5 4 5 5 4 4 5 6 8 9 9 10 10 9 9 7 8 7 7 7 7 5 4 5 5 4 4 4 4
12 12 12 12 10 8 7 5 4 4 5 5 5 4 5 5 5 4 5 5 5 6 8 9 10 10 10 9 7 6 6 5 4 4 5 4 3 4 3 3 3 3 3
12 11 11 10 10 11 11 9 8 7 6 6 6 6 6 5 5 5 5 5 5 6 7 8 9 10 10 9 6 5 4 3 2 2 3 3 3 3 3 3 3 3 5
9 9 11 12 13 13 11 10 9 8 8 8 7 8 7 6 6 6 6 4 5 5 6 7 8 8 9 8 7 5 2 1 2 2 2 3 3 3 3 4 5 6 6
9 10 10 11 12 11 11 11 10 9 9 9 9 9 9 8 8 8 6 4 4 4 5 5 6 7 7 7 6 5 5 5 5 5 5 4 5 5 5 7 7 7 7
9 9 9 9 9 9 9 10 11 10 10 10 10 10 10 10 9 8 6 5 4 3 3 4 4 5 5 6 7 7 7 8 8 8 7 6 6 7 8 8 8 8 8
12 12 11 10 10 10 9 9 10 10 11 11 11 11 11 9 8 8 7 6 4 3 2 2 3 3 3 4 5 7 8 8 9 9 8 8 10 10 7 8 7 8 8
13 12 12 12 12 12 12 11 11 11 10 10 11 12 11 9 8 9 7 6 6 4 2 1 1 2 2 4 7 6 7 7 8 8 7 9 11 14 15 14 11 9 9
12 12 13 12 12 12 12 11 11 11 10 10 10 11 11 10 9 8 8 8 7 5 4 3 2 1 1 3 6 7 6 6 5 5 6 7 8 9 10 14 15 13 12
11 13 13 13 12 13 12 11 11 10 10 10 10 9 10 10 8 7 9 9 7 6 6 5 5 4 3 4 6 7 6 6 6 5 5 7 6 6 9 11 11 9 8
12 13 13 13 13 14 13 11 12 11 11 10 10 9 9 10 9 8 9 8 7 7 7 6 7 6 5 7 7 7 5 6 6 5 5 6 7 8 12 12 11 10 8
14 13 13 12 13 14 11 10 12 12 12 11 10 9 8 9 9 9 9 7 8 9 9 8 7 8 7 9 9 8 5 6 5 5 6 7 8 9 10 10 11 10 6
17 16 14 12 12 13 10 11 12 14 14 11 10 9 8 8 9 8 8 8 9 9 9 9 7 7 8 10 11 10 6 7 6 5 4 4 9 11 11 9 8 9 8
16 16 14 14 12 11 11 13 14 15 12 10 10 10 9 8 8 7 8 8 10 11 10 9 7 5 6 8 10 11 9 9 7 5 4 5 11 12 12 10 11 12 9
16 14 14 14 12 11 11 14 15 14 12 11 11 10 9 8 7 7 8 7 9 10 10 10 9 7 5 6 10 11 11 11 6 5 8 10 12 12 10 12 12 8 6
15 14 14 14 13 12 12 13 14 12 11 12 11 10 8 8 7 6 5 6 7 10 11 11 11 9 7 6 7 7 8 9 9 7 9 12 12 9 9 8 7 5 5
14 13 14 15 16 13 13 13 12 11 11 12 11 9 8 8 7 6 6 6 8 10 12 13 12 13 11 11 14 12 9 8 9 9 5 5 5 5 5 5 5 5 5
15 15 15 16 16 14 14 13 12 11 10 10 9 8 7 6 6 6 7 10 12 14 16 14 14 13 14 18 17 16 16 16 17 10 7 6 6 6 6 5 4 4 4
Wind_Direction
129 136 147 150 148 158 165 173 180 189 166 147 170 215 257 274 287 291 297 304 299 293 282 275 272 264 256 255 250 246 243 241 231 238 254 250 240 238 237 238 242 246 247
153 177 184 180 178 184 189 190 191 185 177 159 159 183 236 275 282 301 311 308 309 305 302 288 282 274 267 264 257 248 246 242 211 213 231 258 258 236 234 232 235 242 244
189 200 206 211 207 209 205 197 190 183 172 150 107 58 14 339 323 316 310 310 312 307 300 294 288 282 272 268 262 250 245 246 228 211 210 216 233 250 245 233 234 237 236
207 213 216 221 222 223 212 197 183 169 159 149 152 169 220 265 266 284 290 301 302 305 305 303 298 290 280 272 268 260 248 243 241 223 218 222 208 217 256 246 235 234 234
215 221 225 227 231 224 201 190 175 174 173 168 172 184 215 236 271 286 292 298 301 302 306 306 302 296 288 279 272 266 254 244 241 230 217 225 228 225 232 252 243 233 236
234 240 247 252 256 235 196 184 183 192 188 183 188 198 218 244 279 294 301 305 304 300 303 307 301 295 289 284 277 269 259 249 243 237 224 214 213 212 219 232 236 236 237
264 270 276 273 267 248 220 201 195 207 204 202 211 213 217 231 254 274 287 299 304 305 308 310 304 300 292 286 280 274 264 253 246 239 232 226 224 211 208 221 228 228 220
345 331 322 307 289 269 240 215 211 218 214 218 226 223 221 226 242 251 262 279 287 294 298 303 302 300 298 293 284 276 266 255 245 238 229 225 223 215 207 204 200 205 196
11 4 358 353 339 322 295 261 248 248 238 233 235 236 232 235 247 256 260 272 281 294 303 306 305 304 302 297 290 276 268 255 240 229 220 216 214 209 207 199 188 186 184
21 19 18 14 9 4 359 357 332 294 284 272 260 256 245 242 249 258 268 278 289 297 309 314 313 311 307 302 294 282 269 253 236 217 205 205 202 193 192 184 181 182 157
17 15 13 11 15 17 15 8 355 334 313 290 274 266 260 253 252 255 263 276 289 302 313 319 321 321 320 315 306 293 280 247 212 188 183 183 171 167 163 142 130 115 112
12 11 10 10 12 11 7 3 355 345 328 309 284 266 258 251 248 251 257 268 285 298 311 321 327 334 337 334 333 332 341 56 85 98 122 112 118 112 111 110 109 104 102
6 7 7 6 3 358 355 351 347 339 329 320 303 281 264 249 244 243 244 253 272 293 312 326 336 342 346 351 359 14 39 51 55 58 70 80 93 91 94 98 101 102 102
359 359 357 352 349 344 341 339 338 333 330 325 314 295 275 256 245 236 230 234 249 274 304 321 336 345 359 14 27 45 55 56 54 53 55 62 78 95 103 101 103 106 103
353 351 346 341 338 335 330 331 330 328 328 326 322 309 292 268 246 232 223 220 227 239 267 309 347 353 8 35 48 61 68 68 64 56 56 70 86 86 95 109 111 112 108
338 335 332 329 327 325 323 321 318 319 321 322 321 319 310 286 254 233 218 210 210 208 203 226 14 17 43 64 66 74 77 73 75 74 69 76 81 84 83 85 87 100 113
318 316 313 309 307 306 305 301 301 306 310 311 315 322 320 306 275 242 217 209 202 193 188 189 167 143 108 99 85 79 83 81 76 77 82 88 86 90 93 82 76 73 80
299 299 297 295 293 293 291 288 289 293 296 300 305 313 321 317 302 261 229 214 197 189 187 187 177 166 171 146 118 98 85 81 72 72 91 103 94 100 105 97 85 75 67
288 287 284 284 284 284 283 284 285 285 287 289 292 301 312 316 310 289 251 220 199 189 186 184 179 173 175 169 149 124 105 93 76 65 71 99 101 112 113 106 101 91 79
294 289 287 284 280 279 278 275 277 278 278 278 280 285 293 304 303 297 276 232 206 194 183 183 184 178 177 180 165 140 125 110 97 74 62 73 99 112 118 119 118 111 106
289 290 289 286 280 281 278 274 274 270 269 271 273 277 279 286 292 297 287 241 212 190 181 179 180 179 177 178 172 155 139 133 121 104 85 77 97 101 103 106 113 126 123
285 284 283 281 281 279 277 277 275 271 271 270 271 272 274 281 298 303 299 259 213 190 180 173 172 177 176 175 178 166 150 142 129 123 113 101 100 99 100 100 112 114 109
282 279 274 275 273 268 265 270 272 273 272 272 269 269 272 271 274 289 298 276 220 192 180 177 178 177 175 178 174 164 150 139 121 127 126 114 103 95 93 99 103 103 104
278 277 274 275 275 269 265 264 269 270 267 265 265 265 267 270 268 277 285 276 236 196 182 180 179 174 170 169 160 154 143 130 120 118 112 100 91 88 88 85 81 82 93
281 276 275 275 273 269 265 265 266 265 263 263 262 262 260 262 268 272 274 272 255 213 189 184 178 174 179 183 168 158 157 154 144 132 115 109 109 104 97 91 86 89 97
286 282 278 276 274 269 265 261 258 256 257 261 260 256 255 257 260 273 284 270 254 221 203 189 177 180 175 163 165 161 155 148 145 135 139 141 143 142 138 129 113 105 107